N8TWM-13 Weather Reports


time (UTC)temp
F
wind
direction
speed
knots
gust
knots
rain 1hr
in
rain 24hr
in
rain mn
in
humidity
%
barometer
mb
20260508135255 54 265 0.9 0.9 0.00 0.00 0.00 67 1013.0
20260508134750 54 254 4.3 7.0 0.00 0.00 0.00 66 1013.0
20260508134248 55 235 1.7 2.6 0.00 0.00 0.00 65 1013.0
20260508133744 54 219 0.9 1.7 0.00 0.00 0.00 66 1013.2
20260508133242 54 252 2.6 2.6 0.00 0.00 0.00 66 1013.1
20260508132740 53 251 3.5 4.3 0.00 0.00 0.00 66 1013.0
20260508132237 54 229 0.9 0.9 0.00 0.00 0.00 66 1013.1
20260508131732 54 249 2.6 4.3 0.00 0.00 0.00 67 1013.4
20260508131229 53 267 3.5 5.2 0.00 0.00 0.00 66 1013.1
20260508130726 53 250 0.0 0.9 0.00 0.00 0.00 66 1013.3
20260508130223 53 243 2.6 4.3 0.00 0.00 0.00 65 1013.1
20260508125718 53 250 0.0 0.9 0.00 0.00 0.00 66 1013.2
20260508125215 53 254 0.9 1.7 0.00 0.00 0.00 66 1013.2
20260508124714 54 345 4.3 5.2 0.00 0.00 0.00 64 1013.1
20260508124210 53 271 2.6 5.2 0.00 0.00 0.00 65 1013.4
20260508123709 53 254 2.6 4.3 0.00 0.00 0.00 66 1013.2
20260508123206 52 261 4.3 7.8 0.00 0.00 0.00 66 1013.0
20260508122702 52 232 0.9 0.9 0.00 0.00 0.00 68 1012.9
20260508122159 51 234 5.2 6.1 0.00 0.00 0.00 67 1012.9
20260508121657 51 261 1.7 1.7 0.00 0.00 0.00 68 1013.1
20260508121155 51 291 2.6 4.3 0.00 0.00 0.00 67 1013.1
20260508120652 51 238 4.3 7.0 0.00 0.00 0.00 68 1013.2
20260508120150 51 254 5.2 7.0 0.00 0.00 0.00 66 1013.0
20260508115648 51 228 0.9 1.7 0.00 0.00 0.00 68 1012.7
20260508115144 51 215 2.6 2.6 0.00 0.00 0.00 67 1012.7
20260508114641 50 217 0.9 1.7 0.00 0.00 0.00 69 1012.7
20260508114138 50 263 2.6 2.6 0.00 0.00 0.00 69 1012.8
20260508113635 50 231 1.7 1.7 0.00 0.00 0.00 69 1012.8
20260508113133 50 248 0.9 1.7 0.00 0.00 0.00 70 1012.7
20260508112629 50 241 0.9 0.9 0.00 0.00 0.00 71 1012.8
20260508112126 49 227 0.0 0.9 0.00 0.00 0.00 71 1012.9
20260508111622 48 231 1.7 2.6 0.00 0.00 0.00 72 1012.7
20260508111120 48 257 3.5 4.3 0.00 0.00 0.00 74 1012.9
20260508110618 47 241 1.7 1.7 0.00 0.00 0.00 75 1012.8
20260508110113 46 233 0.0 0.9 0.00 0.00 0.00 77 1012.8
20260508105608 46 252 0.0 0.9 0.00 0.00 0.00 78 1012.9
20260508105106 46 230 0.0 0.0 0.00 0.00 0.00 78 1012.7
20260508104603 46 245 0.0 0.0 0.00 0.00 0.00 77 1012.8
20260508104100 46 233 0.0 0.0 0.00 0.00 0.00 77 1012.6
20260508103557 46 237 0.0 0.0 0.00 0.00 0.00 77 1012.5
20260508103054 46 235 0.0 0.0 0.00 0.00 0.00 77 1012.6
20260508102551 46 209 0.9 0.9 0.00 0.00 0.00 77 1012.4
20260508102049 46 236 0.0 0.0 0.00 0.00 0.00 77 1012.5
20260508101546 46 236 0.0 0.0 0.00 0.00 0.00 77 1012.6
20260508101043 46 234 0.0 0.0 0.00 0.00 0.00 76 1012.5
20260508100542 46 205 0.0 0.9 0.00 0.00 0.00 76 1012.7
20260508100038 46 249 0.0 0.0 0.00 0.00 0.00 76 1012.7
20260508095535 46 235 0.9 1.7 0.00 0.00 0.00 77 1012.5
20260508095032 46 234 0.0 0.0 0.00 0.00 0.00 78 1012.5
20260508094529 46 228 0.0 0.0 0.00 0.00 0.00 78 1012.6
20260508094026 46 224 2.6 2.6 0.00 0.00 0.00 80 1012.7
20260508093523 45 241 0.0 0.0 0.00 0.00 0.00 82 1012.6
20260508093021 45 235 0.0 0.0 0.00 0.00 0.00 83 1012.7
20260508092518 45 232 0.0 0.0 0.00 0.00 0.00 83 1012.5
20260508092017 45 228 0.0 0.0 0.00 0.00 0.00 84 1012.7
20260508091513 45 227 0.0 0.0 0.00 0.00 0.00 84 1012.7
20260508091010 45 226 0.0 0.0 0.00 0.00 0.00 85 1012.6
20260508090508 45 229 0.0 0.0 0.00 0.00 0.00 86 1013.0
20260508090005 45 237 0.0 0.0 0.00 0.00 0.00 85 1012.8
20260508085501 45 237 0.0 0.0 0.00 0.00 0.00 85 1012.9
20260508084958 46 236 0.0 0.0 0.00 0.00 0.00 83 1013.0
20260508084455 46 236 0.0 0.0 0.00 0.00 0.00 82 1013.0
20260508083953 46 239 0.0 0.0 0.00 0.00 0.00 82 1013.2
20260508083449 46 266 0.0 0.0 0.00 0.00 0.00 82 1013.3
20260508082944 46 3 3.5 4.3 0.00 0.00 0.00 83 1013.2
20260508082442 46 247 0.0 0.0 0.00 0.00 0.00 83 1012.9
20260508081939 46 247 0.0 0.0 0.00 0.00 0.00 83 1012.8
20260508081436 46 247 0.0 0.0 0.00 0.00 0.00 82 1013.1
20260508080932 47 247 0.0 0.0 0.00 0.00 0.00 82 1013.0
20260508080431 47 247 0.0 0.0 0.00 0.00 0.00 81 1013.1
20260508075927 47 246 0.0 0.0 0.00 0.00 0.00 81 1013.0
20260508075424 47 251 0.0 0.0 0.00 0.00 0.00 81 1012.9
20260508074922 47 237 0.0 0.0 0.00 0.00 0.00 81 1013.2
20260508074419 47 258 0.9 0.9 0.00 0.00 0.00 80 1013.3
20260508073916 47 251 0.9 2.6 0.00 0.00 0.00 80 1013.3
20260508073414 47 243 0.9 1.7 0.00 0.00 0.00 79 1013.2
20260508072910 47 246 0.0 0.0 0.00 0.00 0.00 80 1013.3
20260508072406 47 263 0.9 1.7 0.00 0.00 0.00 79 1013.0
20260508071904 47 232 1.7 2.6 0.00 0.00 0.00 79 1013.3
20260508071402 47 242 3.5 5.2 0.00 0.00 0.00 79 1013.2
20260508070859 47 274 1.7 2.6 0.00 0.00 0.00 79 1013.5
20260508070357 46 237 2.6 4.3 0.00 0.00 0.00 79 1013.5
20260508065855 46 209 5.2 6.1 0.00 0.00 0.00 80 1013.3
20260508065353 46 229 0.9 0.9 0.00 0.00 0.00 80 1013.5
20260508064851 46 235 1.7 1.7 0.00 0.00 0.00 80 1013.5
20260508064347 46 242 0.0 0.0 0.00 0.00 0.00 80 1013.5
20260508063846 46 226 0.0 0.0 0.00 0.00 0.00 80 1013.7
20260508063343 47 229 0.0 0.0 0.00 0.00 0.00 80 1013.7
20260508062840 47 241 0.0 0.0 0.00 0.00 0.00 79 1013.5
20260508062337 47 222 1.7 2.6 0.00 0.00 0.00 79 1013.7
20260508061834 47 251 0.0 0.0 0.00 0.00 0.00 79 1013.8
20260508061332 47 254 2.6 2.6 0.00 0.00 0.00 77 1014.0
20260508060828 48 230 2.6 5.2 0.00 0.00 0.00 76 1013.8
20260508060326 48 226 1.7 1.7 0.00 0.00 0.00 76 1014.1
20260508055820 48 257 0.0 0.9 0.00 0.00 0.00 76 1014.2
20260508055319 47 249 0.0 0.0 0.00 0.00 0.00 75 1014.2
20260508054815 47 230 0.0 0.0 0.00 0.00 0.00 78 1014.2
20260508054313 47 258 0.0 0.0 0.00 0.00 0.00 76 1014.2
20260508053809 47 258 0.0 0.0 0.00 0.00 0.00 74 1013.7
20260508053307 47 258 0.0 0.0 0.00 0.00 0.00 73 1013.6
20260508052804 48 258 0.0 0.0 0.00 0.00 0.00 72 1013.7
20260508052301 48 258 0.0 0.0 0.00 0.00 0.00 71 1013.8
20260508051757 48 259 0.0 0.0 0.00 0.00 0.00 70 1014.1
20260508051252 48 257 0.0 0.0 0.00 0.00 0.00 70 1013.8
20260508050749 47 257 0.0 0.0 0.00 0.00 0.00 70 1013.6
20260508050246 47 257 0.0 0.0 0.00 0.00 0.00 71 1013.7
20260508045742 47 257 0.0 0.0 0.00 0.00 0.00 71 1013.4
20260508045240 47 257 0.0 0.0 0.00 0.00 0.00 69 1013.6
20260508044737 47 257 0.0 0.0 0.00 0.00 0.00 69 1013.7
20260508044234 47 257 0.0 0.0 0.00 0.00 0.00 69 1013.7
20260508043730 47 257 0.0 0.0 0.00 0.00 0.00 69 1013.7
20260508043227 47 257 0.0 0.0 0.00 0.00 0.00 69 1013.4
20260508042724 47 257 0.0 0.0 0.00 0.00 0.00 69 1013.6
20260508042221 47 257 0.0 0.0 0.00 0.00 0.00 70 1013.5
20260508041718 47 257 0.0 0.0 0.00 0.00 0.00 71 1013.4
20260508041215 47 257 0.0 0.0 0.00 0.00 0.00 69 1013.6
20260508040711 47 257 0.0 0.0 0.00 0.00 0.00 69 1013.8
20260508040208 48 257 0.0 0.0 0.00 0.00 0.00 69 1013.7
20260508035706 48 257 0.0 0.9 0.00 0.00 0.00 67 1013.7
20260508035203 48 257 0.0 0.0 0.00 0.00 0.00 66 1013.6
20260508034659 48 257 0.0 0.0 0.00 0.00 0.00 66 1013.6
20260508034156 48 257 0.0 0.0 0.00 0.00 0.00 65 1014.0
20260508033654 48 257 0.0 0.0 0.00 0.00 0.00 65 1014.0
20260508033152 48 257 0.0 0.0 0.00 0.00 0.00 64 1013.8
20260508032649 48 257 0.0 0.0 0.00 0.00 0.00 64 1014.0
20260508032146 49 257 0.0 0.0 0.00 0.00 0.00 64 1013.8
20260508031643 49 257 0.0 0.0 0.00 0.00 0.00 64 1013.6
20260508031139 50 257 0.0 0.0 0.00 0.00 0.00 64 1014.1
20260508030636 50 248 0.0 0.0 0.00 0.00 0.00 62 1014.0
20260508030133 50 248 0.9 0.9 0.00 0.00 0.00 60 1014.2
20260508025629 50 255 0.0 0.0 0.00 0.00 0.00 60 1014.2
20260508025127 50 255 0.0 0.0 0.00 0.00 0.00 60 1014.1
20260508024622 50 255 0.0 0.9 0.00 0.00 0.00 59 1014.2
20260508024120 50 245 0.0 0.0 0.00 0.00 0.00 59 1014.2
20260508023616 50 251 0.9 1.7 0.00 0.00 0.00 58 1014.2
20260508023114 50 241 0.0 0.0 0.00 0.00 0.00 59 1014.2
20260508022609 51 241 0.0 0.0 0.00 0.00 0.00 59 1014.2
20260508022107 51 247 0.0 0.9 0.00 0.00 0.00 58 1014.2
20260508021602 51 255 0.9 0.9 0.00 0.00 0.00 58 1014.3
20260508021058 51 253 0.9 1.7 0.00 0.00 0.00 57 1014.0
20260508020556 51 248 2.6 2.6 0.00 0.00 0.00 56 1013.7
20260508020054 51 254 2.6 2.6 0.00 0.00 0.00 56 1013.6
20260508015551 51 256 2.6 4.3 0.00 0.00 0.00 56 1014.1
20260508015048 51 252 0.9 1.7 0.00 0.00 0.00 55 1014.0
20260508014544 51 269 2.6 5.2 0.00 0.00 0.00 55 1014.0
20260508014040 51 241 1.7 1.7 0.00 0.00 0.00 56 1014.0
20260508013536 51 262 2.6 2.6 0.00 0.00 0.00 56 1013.7
20260508013034 50 247 0.9 0.9 0.00 0.00 0.00 59 1013.5
20260508012531 50 257 0.0 0.0 0.00 0.00 0.00 58 1013.4
20260508012028 50 257 0.0 0.0 0.00 0.00 0.00 59 1013.2
20260508011527 50 257 0.0 0.0 0.00 0.00 0.00 59 1013.4
20260508011023 50 257 0.0 0.0 0.00 0.00 0.00 59 1013.3
20260508010520 49 258 0.0 0.0 0.00 0.00 0.00 58 1013.1
20260508010018 49 257 0.0 0.0 0.00 0.00 0.00 59 1013.3
20260508005514 50 257 0.0 0.0 0.00 0.00 0.00 58 1013.0
20260508005011 50 257 0.0 0.0 0.00 0.00 0.00 58 1013.2
20260508004507 50 257 0.0 0.0 0.00 0.00 0.00 56 1013.1
20260508004004 50 257 0.0 0.9 0.00 0.00 0.00 56 1013.2
20260508003500 50 258 0.0 0.0 0.00 0.00 0.00 57 1013.2
20260508002958 51 258 0.0 0.0 0.00 0.00 0.00 54 1013.0
20260508002454 51 258 0.0 0.0 0.00 0.00 0.00 52 1013.1
20260508001950 52 258 0.0 0.0 0.00 0.00 0.00 51 1013.1
20260508001446 52 259 0.9 0.9 0.00 0.00 0.00 50 1013.0
20260508000943 52 258 1.7 1.7 0.00 0.00 0.00 50 1013.1
20260508000439 52 251 2.6 2.6 0.00 0.00 0.00 50 1013.1
20260507235936 53 236 0.0 0.9 0.00 0.00 0.00 49 1012.8
20260507235433 53 257 1.7 1.7 0.00 0.00 0.00 48 1012.8
20260507234931 53 252 0.0 1.7 0.00 0.00 0.00 48 1012.8
20260507234427 53 256 1.7 1.7 0.00 0.00 0.00 47 1012.8
20260507233923 54 254 0.9 1.7 0.00 0.00 0.00 48 1012.8
20260507233420 54 248 6.1 7.0 0.00 0.00 0.00 46 1012.7
20260507232919 55 247 0.9 0.9 0.00 0.00 0.00 47 1012.7
20260507232415 55 293 2.6 4.3 0.00 0.00 0.00 46 1012.7
20260507231912 55 253 1.7 1.7 0.00 0.00 0.00 47 1012.7
20260507231409 55 263 2.6 2.6 0.00 0.00 0.00 45 1012.8
20260507230905 56 240 1.7 1.7 0.00 0.00 0.00 45 1012.8
20260507230403 56 228 0.9 0.9 0.00 0.00 0.00 44 1012.7
20260507225903 56 255 0.9 1.7 0.00 0.00 0.00 44 1012.8
20260507225359 56 260 5.2 7.0 0.00 0.00 0.00 44 1012.7
20260507224855 56 266 3.5 6.1 0.00 0.00 0.00 44 1012.8
20260507224352 56 279 1.7 1.7 0.00 0.00 0.00 44 1012.8
20260507223848 56 242 0.9 0.9 0.00 0.00 0.00 45 1012.8
20260507223344 56 314 3.5 4.3 0.00 0.00 0.00 44 1013.0
20260507222841 57 286 5.2 6.1 0.00 0.00 0.00 42 1012.8
20260507222337 56 268 0.9 0.9 0.00 0.00 0.00 44 1012.9
20260507221835 56 299 3.5 4.3 0.00 0.00 0.00 43 1012.7
20260507221331 56 224 7.8 11.3 0.00 0.00 0.00 43 1013.0
20260507220827 56 272 2.6 4.3 0.00 0.00 0.00 44 1012.8
20260507220326 55 326 5.2 7.8 0.00 0.00 0.00 44 1012.8
20260507215822 56 268 2.6 2.6 0.00 0.00 0.00 44 1012.8
20260507215319 57 265 3.5 5.2 0.00 0.00 0.00 42 1012.6
20260507214816 56 263 1.7 4.3 0.00 0.00 0.00 45 1012.7
20260507214314 57 303 1.7 4.3 0.00 0.00 0.00 43 1012.4
20260507213808 56 329 5.2 7.0 0.00 0.00 0.00 43 1012.6
20260507213306 57 198 0.0 0.9 0.00 0.00 0.00 44 1012.7
20260507212802 56 263 0.0 0.0 0.00 0.00 0.00 46 1012.4
20260507212258 57 257 5.2 7.0 0.00 0.00 0.00 44 1012.6
20260507211755 56 232 1.7 4.3 0.00 0.00 0.00 45 1012.7
20260507211251 56 276 2.6 4.3 0.00 0.00 0.00 43 1012.6
20260507210748 56 298 2.6 4.3 0.00 0.00 0.00 44 1012.6
20260507210245 57 263 1.7 2.6 0.00 0.00 0.00 44 1012.4
20260507205742 57 268 2.6 4.3 0.00 0.00 0.00 44 1012.4
20260507205239 57 278 0.9 2.6 0.00 0.00 0.00 46 1012.7
20260507204735 57 276 3.5 5.2 0.00 0.00 0.00 43 1012.4
20260507204233 56 327 3.5 4.3 0.00 0.00 0.00 44 1012.5
20260507203730 56 267 2.6 4.3 0.00 0.00 0.00 45 1012.4
20260507203227 55 274 2.6 2.6 0.00 0.00 0.00 46 1012.4
20260507202723 55 282 1.7 1.7 0.00 0.00 0.00 45 1012.6
20260507202214 57 246 6.1 7.0 0.00 0.00 0.00 45 1012.6
20260507201709 56 277 3.5 4.3 0.00 0.00 0.00 47 1012.5
20260507201206 56 297 2.6 7.0 0.00 0.00 0.00 47 1012.3
20260507200703 55 230 4.3 5.2 0.00 0.00 0.00 48 1012.7
20260507200159 56 253 0.9 0.9 0.00 0.00 0.00 49 1012.6
20260507195655 56 291 2.6 2.6 0.00 0.00 0.00 47 1012.6
20260507195152 57 263 3.5 5.2 0.00 0.00 0.00 48 1012.9
20260507194649 56 270 2.6 4.3 0.00 0.00 0.00 49 1012.9
20260507194145 57 269 2.6 2.6 0.00 0.00 0.00 49 1012.6
20260507193642 57 221 2.6 2.6 0.00 0.00 0.00 50 1012.6
20260507193139 55 272 2.6 4.3 0.00 0.00 0.00 52 1012.8
20260507192635 54 271 2.6 2.6 0.00 0.00 0.00 53 1013.0
20260507192132 55 302 4.3 6.1 0.00 0.00 0.00 50 1013.0
20260507191627 55 238 4.3 5.2 0.00 0.00 0.00 52 1012.9
20260507191125 53 272 2.6 2.6 0.00 0.00 0.00 52 1013.0
20260507190622 54 261 3.5 4.3 0.00 0.00 0.00 52 1012.9
20260507190121 55 278 2.6 2.6 0.00 0.00 0.00 53 1013.0
20260507185619 55 258 4.3 6.1 0.00 0.00 0.00 51 1012.9
20260507185115 53 263 0.9 2.6 0.00 0.00 0.00 57 1013.0
20260507184613 55 270 1.7 1.7 0.00 0.00 0.00 55 1012.9
20260507184111 55 236 1.7 2.6 0.00 0.00 0.00 54 1013.1
20260507183607 55 248 2.6 4.3 0.00 0.00 0.00 57 1013.3
20260507183104 53 271 2.6 5.2 0.00 0.00 0.00 56 1013.3
20260507182600 53 273 7.0 11.3 0.00 0.00 0.00 54 1013.0
20260507182056 53 240 2.6 2.6 0.00 0.00 0.00 55 1013.0
20260507181553 54 306 4.3 7.0 0.00 0.00 0.00 53 1012.9
20260507181049 55 232 2.6 2.6 0.00 0.00 0.00 53 1012.8
20260507180546 54 154 1.7 4.3 0.00 0.00 0.00 56 1013.1
20260507180043 54 248 6.1 7.8 0.00 0.00 0.00 54 1013.2
20260507175539 55 279 2.6 4.3 0.00 0.00 0.00 53 1013.2
20260507175037 55 268 5.2 7.8 0.00 0.00 0.00 50 1013.3
20260507174533 54 250 4.3 5.2 0.00 0.00 0.00 50 1013.2
20260507174032 55 255 2.6 4.3 0.00 0.00 0.00 49 1013.4
20260507173528 55 247 3.5 5.2 0.00 0.00 0.00 51 1013.2
20260507173026 55 251 1.7 2.6 0.00 0.00 0.00 51 1013.0
20260507172521 55 296 1.7 1.7 0.00 0.00 0.00 54 1013.3
20260507172018 54 275 7.0 8.7 0.00 0.00 0.00 52 1013.3
20260507171514 54 206 0.9 1.7 0.00 0.00 0.00 55 1013.4
20260507171011 53 243 4.3 8.7 0.00 0.00 0.00 52 1013.2
20260507170508 53 274 5.2 8.7 0.00 0.00 0.00 53 1013.6
20260507170005 54 232 4.3 6.1 0.00 0.00 0.00 52 1013.3
20260507165500 55 267 2.6 2.6 0.00 0.00 0.00 52 1013.5
20260507164957 55 275 10.4 13.0 0.00 0.00 0.00 52 1013.5
20260507164453 54 233 2.6 4.3 0.00 0.00 0.00 50 1013.5
20260507163950 55 234 3.5 6.1 0.00 0.00 0.00 51 1013.3
20260507163448 55 259 2.6 4.3 0.00 0.00 0.00 51 1013.2
20260507162944 54 298 2.6 2.6 0.00 0.00 0.00 52 1013.5
20260507162440 54 258 1.7 2.6 0.00 0.00 0.00 54 1013.7
20260507161937 54 245 2.6 4.3 0.00 0.00 0.00 52 1013.4
20260507161433 54 247 2.6 4.3 0.00 0.00 0.00 51 1013.3
20260507160930 54 272 0.9 0.9 0.00 0.00 0.00 52 1013.6
20260507160426 54 292 3.5 5.2 0.00 0.00 0.00 52 1013.4
20260507155922 54 292 1.7 2.6 0.00 0.00 0.00 51 1013.4
20260507155418 54 279 2.6 5.2 0.00 0.00 0.00 52 1013.4
20260507154915 54 224 1.7 2.6 0.00 0.00 0.00 53 1013.3
20260507154412 54 291 2.6 5.2 0.00 0.00 0.00 51 1013.6
20260507153910 53 250 0.9 1.7 0.00 0.00 0.00 51 1013.5
20260507153406 54 254 3.5 5.2 0.00 0.00 0.00 48 1013.4
20260507152902 54 220 2.6 4.3 0.00 0.00 0.00 55 1013.2
20260507152359 53 309 1.7 2.6 0.00 0.00 0.00 55 1013.5
20260507151855 52 250 0.9 0.9 0.00 0.00 0.00 58 1013.5
20260507151351 53 292 6.1 8.7 0.00 0.00 0.00 53 1013.6
20260507150848 52 266 2.6 2.6 0.00 0.00 0.00 57 1013.5
20260507150345 52 261 0.9 1.7 0.00 0.00 0.00 54 1013.4
20260507145841 53 247 1.7 1.7 0.00 0.00 0.00 57 1013.2
20260507145339 52 228 6.1 7.8 0.00 0.00 0.00 57 1013.3
20260507144834 52 274 3.5 5.2 0.00 0.00 0.00 58 1013.6
20260507144332 52 312 3.5 5.2 0.00 0.00 0.00 58 1013.6
20260507143828 51 256 0.9 0.9 0.00 0.00 0.00 61 1013.6
20260507143326 52 248 1.7 1.7 0.00 0.00 0.00 61 1013.5
20260507142821 51 254 0.9 1.7 0.00 0.00 0.00 62 1013.6
20260507142318 51 227 0.0 0.9 0.00 0.00 0.00 63 1013.5
20260507141815 51 249 0.0 1.7 0.00 0.00 0.00 63 1013.5
20260507141312 50 251 2.6 2.6 0.00 0.00 0.00 64 1013.4
20260507140808 50 269 1.7 1.7 0.00 0.00 0.00 66 1013.7
20260507140305 50 258 0.9 0.9 0.00 0.00 0.00 66 1013.8
20260507135803 50 261 1.7 2.6 0.00 0.00 0.00 67 1013.8